STARLINK-30436, 57880

Orbit data source: Space-Track

STARLINK-30436, 57880 is a payload satellite owned by SpaceX/Seattle (US) in LEO that was launched on Sat, 16 Sep 2023 UTC via an FALCON 9 launch vehicle from the Air Force Eastern Test Range (AFETR). Payload-class satellites include a variety of spacecraft equipped with specific instruments for various scientific and technological missions. These include communications satellites like Starlink; space stations such as the ISS; scientific satellites like the Hubble; Earth observation satellites from companies like Planet Labs, Umbra, and HawkEye 360; GPS; miniature CubeSats for education and research; and military/defense satellites.

Loading next visibility...
Identifier
57880, 2023-144S
Orbit
LEO
Country
Flag of USUS
Related business
Manufacturer
SpaceX/Seattle
Mission
Operational Commercial Communications
Bus & Motor
STARLINK V2M, Unknown motor
Mass
730 kg wet, ~700 kg dry
Launch date (UTC)
2023-09-16 (2 years ago)
Launch vehicle
FALCON 9
Launch site
Air Force Eastern Test Range (AFETR)
Object type
Payload
Rocket body
Debris
Shape & HBR
Box + 2 Pan, 17.7 m
Radar Cross Section
33.884 m², Large (>1 m²)

Expand to show TLE details & history
Last TLE update: 1 day ago

TLE from 1 day ago
0 STARLINK-30436
1 57880U 23144S   25348.40846026  .00002791  00000-0  22161-3 0  9998
2 57880  43.0070  30.7441 0001612 269.7277  90.3381 15.02535773124787
Epoch: 2025-12-14T09:48Z
TLE epoch observation values (Epoch: 2025-12-14T09:48:10.966Z)
Latitude
Longitude
160.37661°
Altitude
558.866 km
Speed
7.584 km/s
True Right ascension
02h 02m 58s
True Declination
0° 00' 00"
Sunlit
Object was in full shadow at epoch
Visualization orbit readout
Latitude
Unknown
Longitude
Unknown
Altitude
Unknown
Speed
Unknown
Apparent Right ascension
Unknown
Apparent Declination
Unknown
Sunlit
N/A
Visualization observer readout
Local Sidereal Time
13:19:00
Azimuth
Unknown
Elevation
Unknown
Doppler factor
Unknown
Orbital elements
Apogee altitude
562.122 km
Perigee altitude
559.884 km
Semi-major axis
6,939.14 km
Eccentricity
0.00016
Inclination
43.007°
RAAN
30.7441°
Arg. of periapsis
269.7277°
True anomaly
90.35657°
Mean anomaly
90.3381°
Eccentric anomaly
90.34734°
Mean motion
3.75478 °/min
Orbital period
95.88 mins
BSTAR
0.00022161
Loading maneuver chart data...
Computing Atmospheric mass density...
Loading historical data...
Loading historical data...
Loading historical data...
Loading historical data...
Loading historical data...
Loading historical data...
Loading historical data...

Documentation

Showing up to 5 results
|